| time (UTC) | temp F | wind direction | speed MPH | gust MPH | rain 1hr in | rain 24hr in | rain mn in | humidity % | barometer mb |
| 20260506013608 | 49 | 17 | 0.0 | 2.0 | 0.00 | 0.00 | 0.00 | 84 | 1008.3 |
| 20260506013131 | 49 | 17 | 0.0 | 3.0 | 0.00 | 0.00 | 0.00 | 84 | 1008.4 |
| 20260506012120 | 49 | 13 | 0.0 | 3.0 | 0.00 | 0.00 | 0.00 | 83 | 1008.5 |
| 20260506011544 | 49 | 22 | 0.0 | 2.0 | 0.00 | 0.00 | 0.00 | 83 | 1008.5 |
| 20260506011111 | 49 | 20 | 0.0 | 2.0 | 0.00 | 0.00 | 0.00 | 83 | 1008.5 |
| 20260506010632 | 49 | 26 | 0.0 | 0.0 | 0.00 | 0.00 | 0.00 | 82 | 1008.6 |
| 20260506010158 | 49 | 27 | 0.0 | 1.0 | 0.00 | 0.00 | 0.00 | 82 | 1008.6 |
| 20260506005049 | 50 | 27 | 0.0 | 1.0 | 0.00 | 0.00 | 0.00 | 82 | 1008.7 |
| 20260506004617 | 50 | 27 | 0.0 | 4.0 | 0.00 | 0.00 | 0.00 | 82 | 1008.6 |
| 20260506004051 | 50 | 27 | 0.0 | 4.0 | 0.00 | 0.00 | 0.00 | 82 | 1008.8 |
| 20260506003616 | 50 | 29 | 0.0 | 2.0 | 0.00 | 0.00 | 0.00 | 82 | 1008.9 |
| 20260506003042 | 50 | 29 | 0.0 | 2.0 | 0.00 | 0.00 | 0.00 | 82 | 1008.9 |
| 20260506002603 | 50 | 32 | 0.0 | 2.0 | 0.00 | 0.00 | 0.00 | 82 | 1009.0 |
| 20260506002126 | 50 | 26 | 0.0 | 0.0 | 0.00 | 0.00 | 0.00 | 82 | 1009.0 |
| 20260506001601 | 50 | 26 | 0.0 | 2.0 | 0.00 | 0.00 | 0.00 | 82 | 1009.0 |
| 20260506001032 | 50 | 26 | 0.0 | 2.0 | 0.00 | 0.00 | 0.00 | 83 | 1009.1 |
| 20260506000554 | 50 | 22 | 0.0 | 2.0 | 0.00 | 0.00 | 0.00 | 83 | 1009.1 |
| 20260506000119 | 50 | 41 | 0.0 | 2.0 | 0.00 | 0.00 | 0.00 | 83 | 1009.0 |
| 20260505235157 | 50 | 27 | 0.0 | 4.0 | 0.00 | 0.00 | 0.00 | 83 | 1009.0 |
| 20260505234033 | 50 | 16 | 0.0 | 2.0 | 0.00 | 0.00 | 0.00 | 83 | 1009.0 |
| 20260505233557 | 50 | 32 | 0.0 | 3.0 | 0.00 | 0.00 | 0.00 | 82 | 1009.0 |
| 20260505233125 | 50 | 34 | 0.0 | 3.0 | 0.00 | 0.00 | 0.00 | 82 | 1009.0 |
| 20260505232553 | 50 | 358 | 0.0 | 3.0 | 0.00 | 0.00 | 0.00 | 82 | 1009.1 |
| 20260505232023 | 50 | 44 | 0.0 | 3.0 | 0.00 | 0.00 | 0.00 | 82 | 1009.2 |
| 20260505231640 | 50 | 12 | 0.0 | 4.0 | 0.00 | 0.00 | 0.00 | 82 | 1009.2 |
| 20260505230605 | 50 | 8 | 1.0 | 3.0 | 0.00 | 0.00 | 0.00 | 82 | 1009.2 |
| 20260505230110 | 50 | 12 | 0.0 | 5.0 | 0.00 | 0.00 | 0.00 | 82 | 1009.2 |
| 20260505225143 | 50 | 37 | 0.0 | 4.0 | 0.00 | 0.00 | 0.00 | 81 | 1009.4 |
| 20260505224117 | 50 | 41 | 0.0 | 3.0 | 0.00 | 0.00 | 0.00 | 81 | 1009.4 |
| 20260505223053 | 50 | 44 | 0.0 | 4.0 | 0.00 | 0.00 | 0.00 | 81 | 1009.6 |
| 20260505222524 | 50 | 17 | 0.0 | 4.0 | 0.00 | 0.00 | 0.00 | 80 | 1009.7 |
| 20260505222048 | 50 | 5 | 1.0 | 4.0 | 0.00 | 0.00 | 0.00 | 80 | 1009.6 |
| 20260505221525 | 50 | 34 | 0.0 | 6.0 | 0.00 | 0.00 | 0.00 | 80 | 1009.6 |
| 20260505221045 | 50 | 43 | 3.0 | 6.0 | 0.00 | 0.00 | 0.00 | 80 | 1009.7 |
| 20260505220608 | 50 | 22 | 0.0 | 3.0 | 0.00 | 0.00 | 0.00 | 80 | 1009.7 |
| 20260505215537 | 50 | 26 | 0.0 | 5.0 | 0.00 | 0.00 | 0.00 | 80 | 1009.8 |
| 20260505215012 | 50 | 23 | 1.0 | 5.0 | 0.00 | 0.00 | 0.00 | 80 | 1009.8 |
| 20260505214538 | 50 | 55 | 0.0 | 4.0 | 0.00 | 0.00 | 0.00 | 80 | 1009.7 |
| 20260505214147 | 50 | 60 | 0.0 | 4.0 | 0.00 | 0.00 | 0.00 | 80 | 1009.9 |
| 20260505213107 | 50 | 348 | 2.0 | 7.0 | 0.00 | 0.00 | 0.00 | 80 | 1009.9 |
| 20260505212039 | 50 | 27 | 1.0 | 3.0 | 0.00 | 0.00 | 0.00 | 80 | 1010.0 |
| 20260505211556 | 50 | 41 | 0.0 | 4.0 | 0.00 | 0.00 | 0.00 | 80 | 1010.0 |
| 20260505211115 | 50 | 36 | 0.0 | 5.0 | 0.00 | 0.00 | 0.00 | 79 | 1009.9 |
| 20260505210145 | 50 | 359 | 1.0 | 6.0 | 0.00 | 0.00 | 0.00 | 79 | 1010.0 |
| 20260505205024 | 50 | 24 | 0.0 | 5.0 | 0.00 | 0.00 | 0.00 | 79 | 1010.0 |
| 20260505204541 | 50 | 16 | 0.0 | 5.0 | 0.00 | 0.00 | 0.00 | 79 | 1010.0 |
| 20260505204004 | 50 | 37 | 0.0 | 3.0 | 0.00 | 0.00 | 0.00 | 80 | 1010.0 |
| 20260505203532 | 50 | 51 | 0.0 | 0.0 | 0.00 | 0.00 | 0.00 | 80 | 1010.1 |
| 20260505203009 | 50 | 44 | 0.0 | 2.0 | 0.00 | 0.00 | 0.00 | 81 | 1010.1 |
| 20260505202635 | 50 | 44 | 0.0 | 2.0 | 0.00 | 0.00 | 0.00 | 81 | 1010.0 |
| 20260505201034 | 51 | 136 | 0.0 | 5.0 | 0.00 | 0.00 | 0.00 | 81 | 1010.1 |
| 20260505200558 | 51 | 53 | 1.0 | 5.0 | 0.00 | 0.00 | 0.00 | 81 | 1010.1 |
| 20260505200109 | 51 | 355 | 1.0 | 5.0 | 0.00 | 0.00 | 0.00 | 81 | 1010.1 |
| 20260505195725 | 51 | 351 | 1.0 | 5.0 | 0.00 | 0.00 | 0.00 | 81 | 1010.1 |
| 20260505194019 | 51 | 15 | 0.0 | 4.0 | 0.00 | 0.00 | 0.00 | 81 | 1010.1 |
| 20260505193538 | 51 | 29 | 0.0 | 4.0 | 0.00 | 0.00 | 0.00 | 81 | 1010.0 |
| 20260505192956 | 51 | 54 | 0.0 | 4.0 | 0.00 | 0.00 | 0.00 | 81 | 1009.9 |
| 20260505192518 | 51 | 75 | 1.0 | 5.0 | 0.00 | 0.00 | 0.00 | 81 | 1009.9 |
| 20260505192136 | 51 | 6 | 0.0 | 5.0 | 0.00 | 0.00 | 0.00 | 80 | 1010.0 |
| 20260505191014 | 51 | 112 | 0.0 | 5.0 | 0.00 | 0.00 | 0.00 | 80 | 1010.0 |
| 20260505190535 | 51 | 70 | 0.0 | 2.0 | 0.00 | 0.00 | 0.00 | 80 | 1010.0 |
| 20260505190056 | 51 | 48 | 0.0 | 6.0 | 0.00 | 0.00 | 0.00 | 80 | 1009.9 |
| 20260505185520 | 51 | 40 | 0.0 | 6.0 | 0.00 | 0.00 | 0.00 | 79 | 1009.8 |
| 20260505185042 | 51 | 359 | 1.0 | 5.0 | 0.00 | 0.00 | 0.00 | 79 | 1009.8 |
| 20260505184455 | 51 | 26 | 1.0 | 5.0 | 0.00 | 0.00 | 0.00 | 79 | 1009.9 |
| 20260505184011 | 51 | 58 | 0.0 | 4.0 | 0.00 | 0.00 | 0.00 | 79 | 1009.8 |
| 20260505183541 | 51 | 84 | 0.0 | 4.0 | 0.00 | 0.00 | 0.00 | 79 | 1009.9 |
| 20260505183004 | 51 | 27 | 0.0 | 4.0 | 0.00 | 0.00 | 0.00 | 79 | 1009.9 |
| 20260505182523 | 51 | 356 | 0.0 | 4.0 | 0.00 | 0.00 | 0.00 | 79 | 1009.9 |
| 20260505182042 | 51 | 39 | 1.0 | 4.0 | 0.00 | 0.00 | 0.00 | 78 | 1009.9 |
| 20260505181503 | 51 | 0 | 1.0 | 4.0 | 0.00 | 0.00 | 0.00 | 78 | 1009.9 |
| 20260505181121 | 51 | 150 | 0.0 | 5.0 | 0.00 | 0.00 | 0.00 | 78 | 1009.8 |
| 20260505180055 | 52 | 67 | 0.0 | 3.0 | 0.00 | 0.00 | 0.00 | 77 | 1009.9 |
| 20260505175526 | 52 | 15 | 0.0 | 3.0 | 0.00 | 0.00 | 0.00 | 77 | 1009.9 |
| 20260505175054 | 52 | 37 | 0.0 | 3.0 | 0.00 | 0.00 | 0.00 | 77 | 1009.9 |
| 20260505174532 | 52 | 103 | 0.0 | 3.0 | 0.00 | 0.00 | 0.00 | 77 | 1010.0 |
| 20260505174005 | 52 | 43 | 0.0 | 3.0 | 0.00 | 0.00 | 0.00 | 77 | 1010.0 |
| 20260505173527 | 52 | 34 | 0.0 | 7.0 | 0.00 | 0.00 | 0.00 | 77 | 1009.9 |
| 20260505173003 | 52 | 33 | 0.0 | 7.0 | 0.00 | 0.00 | 0.00 | 77 | 1009.9 |
| 20260505172612 | 52 | 6 | 1.0 | 7.0 | 0.00 | 0.00 | 0.00 | 76 | 1009.8 |
| 20260505171531 | 52 | 82 | 0.0 | 5.0 | 0.00 | 0.00 | 0.00 | 76 | 1009.9 |
| 20260505171053 | 52 | 0 | 1.0 | 5.0 | 0.00 | 0.00 | 0.00 | 76 | 1009.9 |
| 20260505170707 | 53 | 65 | 1.0 | 4.0 | 0.00 | 0.00 | 0.00 | 75 | 1010.0 |
| 20260505165727 | 53 | 2 | 1.0 | 7.0 | 0.00 | 0.00 | 0.00 | 76 | 1010.0 |
| 20260505164011 | 53 | 17 | 1.0 | 5.0 | 0.00 | 0.00 | 0.00 | 75 | 1010.1 |
| 20260505163522 | 53 | 96 | 0.0 | 9.0 | 0.00 | 0.00 | 0.00 | 75 | 1010.0 |
| 20260505163043 | 53 | 125 | 0.0 | 9.0 | 0.00 | 0.00 | 0.00 | 75 | 1010.1 |
| 20260505162607 | 53 | 339 | 0.0 | 5.0 | 0.00 | 0.00 | 0.00 | 74 | 1010.0 |
| 20260505161540 | 53 | 26 | 0.0 | 5.0 | 0.00 | 0.00 | 0.00 | 74 | 1010.1 |
| 20260505161002 | 53 | 17 | 1.0 | 4.0 | 0.00 | 0.00 | 0.00 | 73 | 1010.0 |
| 20260505160521 | 54 | 37 | 0.0 | 6.0 | 0.00 | 0.00 | 0.00 | 73 | 1010.1 |
| 20260505160131 | 54 | 190 | 0.0 | 6.0 | 0.00 | 0.00 | 0.00 | 73 | 1010.1 |
| 20260505153019 | 54 | 34 | 1.0 | 6.0 | 0.00 | 0.00 | 0.00 | 73 | 1010.1 |
| 20260505152638 | 54 | 358 | 0.0 | 6.0 | 0.00 | 0.00 | 0.00 | 72 | 1010.1 |
| 20260505151519 | 54 | 2 | 0.0 | 7.0 | 0.00 | 0.00 | 0.00 | 73 | 1010.2 |
| 20260505151140 | 54 | 116 | 3.0 | 7.0 | 0.00 | 0.00 | 0.00 | 73 | 1010.2 |
| 20260505140448 | 54 | 91 | 0.0 | 3.0 | 0.00 | 0.00 | 0.00 | 74 | 1010.6 |
| 20260505125022 | 53 | 33 | 2.0 | 6.0 | 0.00 | 0.00 | 0.00 | 75 | 1010.8 |
| 20260505124543 | 53 | 351 | 0.0 | 6.0 | 0.00 | 0.00 | 0.00 | 75 | 1010.9 |
| 20260505124004 | 53 | 37 | 0.0 | 7.0 | 0.00 | 0.00 | 0.00 | 75 | 1011.0 |
| 20260505123617 | 53 | 351 | 2.0 | 7.0 | 0.00 | 0.00 | 0.00 | 75 | 1011.1 |
| 20260505122545 | 53 | 0 | 0.0 | 5.0 | 0.00 | 0.00 | 0.00 | 75 | 1011.1 |
| 20260505122004 | 53 | 356 | 0.0 | 5.0 | 0.00 | 0.00 | 0.00 | 75 | 1011.1 |
| 20260505121523 | 53 | 30 | 0.0 | 3.0 | 0.00 | 0.00 | 0.00 | 75 | 1011.0 |
| 20260505120950 | 53 | 355 | 0.0 | 4.0 | 0.00 | 0.00 | 0.00 | 75 | 1011.2 |
| 20260505120519 | 53 | 101 | 0.0 | 4.0 | 0.00 | 0.00 | 0.00 | 75 | 1011.0 |
| 20260505120037 | 53 | 297 | 0.0 | 7.0 | 0.00 | 0.00 | 0.00 | 75 | 1011.1 |
| 20260505115503 | 53 | 359 | 0.0 | 7.0 | 0.00 | 0.00 | 0.00 | 75 | 1011.1 |
| 20260505115121 | 53 | 346 | 0.0 | 7.0 | 0.00 | 0.00 | 0.00 | 76 | 1011.1 |
| 20260505114551 | 53 | 3 | 0.0 | 7.0 | 0.00 | 0.00 | 0.00 | 76 | 1011.0 |
| 20260505114211 | 52 | 8 | 0.0 | 5.0 | 0.00 | 0.00 | 0.00 | 75 | 1011.0 |
| 20260505113048 | 52 | 47 | 0.0 | 2.0 | 0.00 | 0.00 | 0.00 | 76 | 1011.1 |
| 20260505112613 | 52 | 0 | 0.0 | 2.0 | 0.00 | 0.00 | 0.00 | 75 | 1011.1 |
| 20260505112043 | 52 | 180 | 0.0 | 2.0 | 0.00 | 0.00 | 0.00 | 75 | 1011.2 |
| 20260505111610 | 52 | 308 | 0.0 | 3.0 | 0.00 | 0.01 | 0.00 | 75 | 1011.3 |
| 20260505111134 | 52 | 122 | 0.0 | 4.0 | 0.00 | 0.01 | 0.00 | 75 | 1011.3 |
| 20260505110608 | 52 | 141 | 1.0 | 4.0 | 0.00 | 0.01 | 0.00 | 75 | 1011.2 |
| 20260505110130 | 53 | 251 | 0.0 | 2.0 | 0.00 | 0.01 | 0.00 | 75 | 1011.3 |
| 20260505102217 | 53 | 228 | 0.0 | 4.0 | 0.00 | 0.01 | 0.00 | 74 | 1011.2 |
| 20260505101100 | 53 | 180 | 0.0 | 1.0 | 0.00 | 0.01 | 0.00 | 75 | 1011.2 |
| 20260505100527 | 53 | 180 | 0.0 | 9.0 | 0.00 | 0.01 | 0.00 | 75 | 1011.2 |
| 20260505100047 | 52 | 8 | 1.0 | 9.0 | 0.00 | 0.01 | 0.00 | 74 | 1011.2 |
| 20260505095605 | 52 | 30 | 2.0 | 5.0 | 0.00 | 0.01 | 0.00 | 74 | 1011.2 |
| 20260505095030 | 52 | 164 | 0.0 | 4.0 | 0.00 | 0.01 | 0.00 | 74 | 1011.4 |
| 20260505094552 | 52 | 150 | 0.0 | 3.0 | 0.00 | 0.01 | 0.00 | 74 | 1011.3 |
| 20260505094116 | 52 | 205 | 0.0 | 3.0 | 0.00 | 0.02 | 0.00 | 75 | 1011.3 |
| 20260505093545 | 52 | 110 | 0.0 | 4.0 | 0.00 | 0.02 | 0.00 | 75 | 1011.3 |
| 20260505093113 | 52 | 53 | 0.0 | 6.0 | 0.00 | 0.02 | 0.00 | 76 | 1011.4 |
| 20260505092053 | 51 | 33 | 0.0 | 7.0 | 0.00 | 0.02 | 0.00 | 77 | 1011.5 |
| 20260505091612 | 51 | 353 | 2.0 | 7.0 | 0.00 | 0.02 | 0.00 | 76 | 1011.6 |
| 20260505091031 | 51 | 79 | 0.0 | 3.0 | 0.00 | 0.02 | 0.00 | 76 | 1011.6 |
| 20260505090553 | 51 | 43 | 0.0 | 0.0 | 0.00 | 0.02 | 0.00 | 76 | 1011.6 |
| 20260505090017 | 51 | 41 | 0.0 | 1.0 | 0.00 | 0.02 | 0.00 | 76 | 1011.8 |
| 20260505085544 | 51 | 41 | 0.0 | 1.0 | 0.00 | 0.02 | 0.00 | 76 | 1011.9 |
| 20260505085024 | 51 | 50 | 0.0 | 2.0 | 0.00 | 0.02 | 0.00 | 77 | 1012.0 |
| 20260505084559 | 51 | 40 | 0.0 | 2.0 | 0.00 | 0.02 | 0.00 | 77 | 1012.1 |
| 20260505084021 | 51 | 58 | 0.0 | 2.0 | 0.00 | 0.02 | 0.00 | 76 | 1012.1 |
| 20260505083543 | 50 | 60 | 0.0 | 2.0 | 0.00 | 0.02 | 0.00 | 77 | 1012.0 |
| 20260505083100 | 50 | 339 | 0.0 | 2.0 | 0.00 | 0.02 | 0.00 | 78 | 1012.0 |
| 20260505082528 | 50 | 16 | 0.0 | 2.0 | 0.00 | 0.02 | 0.00 | 78 | 1011.9 |
| 20260505082004 | 50 | 30 | 0.0 | 2.0 | 0.00 | 0.02 | 0.00 | 79 | 1011.9 |
| 20260505081538 | 50 | 24 | 0.0 | 2.0 | 0.00 | 0.02 | 0.00 | 79 | 1011.9 |
| 20260505081006 | 50 | 150 | 0.0 | 3.0 | 0.00 | 0.02 | 0.00 | 79 | 1011.9 |
| 20260505080534 | 50 | 150 | 0.0 | 3.0 | 0.00 | 0.02 | 0.00 | 79 | 1011.9 |
| 20260505080054 | 50 | 106 | 0.0 | 1.0 | 0.00 | 0.02 | 0.00 | 80 | 1011.9 |
| 20260505075102 | 49 | 36 | 0.0 | 0.0 | 0.00 | 0.02 | 0.00 | 80 | 1011.8 |
| 20260505074531 | 49 | 36 | 0.0 | 0.0 | 0.00 | 0.02 | 0.00 | 80 | 1011.8 |
| 20260505074001 | 49 | 37 | 0.0 | 0.0 | 0.00 | 0.02 | 0.00 | 80 | 1011.8 |
| 20260505073538 | 49 | 39 | 0.0 | 0.0 | 0.00 | 0.02 | 0.00 | 80 | 1011.8 |
| 20260505072529 | 49 | 37 | 0.0 | 5.0 | 0.00 | 0.02 | 0.00 | 80 | 1011.8 |
| 20260505072002 | 49 | 30 | 0.0 | 5.0 | 0.00 | 0.02 | 0.00 | 80 | 1011.8 |
| 20260505071530 | 49 | 29 | 1.0 | 5.0 | 0.00 | 0.02 | 0.00 | 81 | 1011.9 |
| 20260505071005 | 49 | 291 | 0.0 | 2.0 | 0.00 | 0.02 | 0.00 | 81 | 1011.8 |
| 20260505070535 | 49 | 291 | 0.0 | 4.0 | 0.00 | 0.02 | 0.00 | 81 | 1011.8 |
| 20260505070005 | 49 | 23 | 1.0 | 4.0 | 0.00 | 0.02 | 0.00 | 81 | 1011.8 |
| 20260505065530 | 49 | 110 | 0.0 | 9.0 | 0.00 | 0.02 | 0.00 | 81 | 1011.8 |
| 20260505065008 | 49 | 26 | 1.0 | 9.0 | 0.00 | 0.02 | 0.00 | 81 | 1011.8 |
| 20260505064520 | 49 | 24 | 0.0 | 3.0 | 0.00 | 0.02 | 0.00 | 82 | 1011.8 |
| 20260505064130 | 49 | 12 | 1.0 | 3.0 | 0.00 | 0.02 | 0.00 | 82 | 1011.9 |
| 20260505063012 | 49 | 57 | 0.0 | 2.0 | 0.00 | 0.02 | 0.00 | 82 | 1012.0 |
| 20260505062539 | 49 | 61 | 0.0 | 0.0 | 0.00 | 0.02 | 0.00 | 83 | 1011.9 |
| 20260505062021 | 49 | 61 | 0.0 | 4.0 | 0.00 | 0.02 | 0.00 | 83 | 1012.0 |
| 20260505061455 | 49 | 61 | 0.0 | 4.0 | 0.00 | 0.02 | 0.00 | 83 | 1011.9 |
| 20260505061015 | 49 | 40 | 0.0 | 2.0 | 0.00 | 0.02 | 0.00 | 83 | 1011.9 |
| 20260505060543 | 49 | 44 | 0.0 | 2.0 | 0.00 | 0.02 | 0.00 | 83 | 1011.8 |
| 20260505055434 | 48 | 99 | 0.0 | 2.0 | 0.00 | 0.02 | 0.00 | 83 | 1011.7 |
| 20260505055003 | 48 | 34 | 0.0 | 2.0 | 0.00 | 0.02 | 0.00 | 83 | 1011.8 |
| 20260505054529 | 48 | 64 | 0.0 | 3.0 | 0.00 | 0.02 | 0.00 | 83 | 1012.0 |
| 20260505053956 | 48 | 20 | 0.0 | 3.0 | 0.00 | 0.02 | 0.00 | 84 | 1011.9 |
| 20260505053521 | 48 | 43 | 0.0 | 1.0 | 0.00 | 0.02 | 0.00 | 84 | 1012.0 |
| 20260505052953 | 48 | 41 | 0.0 | 1.0 | 0.00 | 0.02 | 0.00 | 84 | 1011.9 |
| 20260505052437 | 48 | 46 | 0.0 | 1.0 | 0.00 | 0.02 | 0.00 | 84 | 1011.9 |
| 20260505052006 | 48 | 20 | 0.0 | 1.0 | 0.00 | 0.02 | 0.00 | 84 | 1012.0 |
| 20260505051440 | 48 | 8 | 0.0 | 2.0 | 0.00 | 0.02 | 0.00 | 84 | 1011.8 |
| 20260505051018 | 48 | 9 | 0.0 | 2.0 | 0.00 | 0.02 | 0.00 | 84 | 1011.8 |
| 20260505050557 | 48 | 27 | 0.0 | 1.0 | 0.00 | 0.02 | 0.00 | 84 | 1011.8 |
| 20260505041431 | 48 | 41 | 0.0 | 1.0 | 0.00 | 0.02 | 0.00 | 84 | 1011.6 |
| 20260505041001 | 48 | 41 | 0.0 | 3.0 | 0.00 | 0.02 | 0.00 | 84 | 1011.6 |
| 20260505040438 | 48 | 13 | 0.0 | 3.0 | 0.00 | 0.02 | 0.00 | 85 | 1011.6 |
| 20260505040004 | 48 | 12 | 0.0 | 2.0 | 0.00 | 0.02 | 0.00 | 85 | 1011.6 |
| 20260505035533 | 48 | 12 | 0.0 | 2.0 | 0.00 | 0.02 | 0.00 | 84 | 1011.6 |
| 20260505034431 | 48 | 2 | 0.0 | 2.0 | 0.00 | 0.02 | 0.00 | 85 | 1011.7 |
| 20260505033959 | 48 | 36 | 0.0 | 2.0 | 0.00 | 0.02 | 0.00 | 85 | 1011.6 |
| 20260505033436 | 48 | 27 | 0.0 | 3.0 | 0.00 | 0.02 | 0.00 | 85 | 1011.6 |
| 20260505032921 | 48 | 32 | 0.0 | 3.0 | 0.00 | 0.02 | 0.00 | 85 | 1011.6 |
| 20260505032437 | 48 | 119 | 0.0 | 3.0 | 0.00 | 0.02 | 0.00 | 85 | 1011.7 |
| 20260505032058 | 48 | 39 | 0.0 | 3.0 | 0.00 | 0.02 | 0.00 | 85 | 1011.7 |
| 20260505030408 | 49 | 48 | 0.0 | 0.0 | 0.00 | 0.02 | 0.00 | 85 | 1011.8 |
| 20260505025936 | 49 | 48 | 0.0 | 0.0 | 0.00 | 0.02 | 0.00 | 84 | 1011.8 |
| 20260505025415 | 49 | 48 | 0.0 | 0.0 | 0.00 | 0.02 | 0.00 | 85 | 1011.8 |
| 20260505024947 | 49 | 46 | 0.0 | 0.0 | 0.00 | 0.02 | 0.00 | 84 | 1011.9 |
| 20260505024423 | 49 | 46 | 0.0 | 1.0 | 0.00 | 0.02 | 0.00 | 84 | 1012.0 |
| 20260505023956 | 49 | 46 | 0.0 | 1.0 | 0.00 | 0.02 | 0.00 | 84 | 1011.9 |
| 20260505023434 | 49 | 63 | 0.0 | 0.0 | 0.00 | 0.02 | 0.00 | 84 | 1011.9 |
| 20260505023002 | 49 | 63 | 0.0 | 1.0 | 0.00 | 0.02 | 0.00 | 84 | 1012.0 |
| 20260505021954 | 49 | 51 | 0.0 | 2.0 | 0.00 | 0.02 | 0.00 | 84 | 1012.1 |
| 20260505021523 | 49 | 92 | 0.0 | 2.0 | 0.00 | 0.02 | 0.00 | 84 | 1012.1 |
| 20260505020507 | 49 | 32 | 0.0 | 2.0 | 0.00 | 0.02 | 0.00 | 85 | 1012.1 |
| 20260505015941 | 49 | 26 | 0.0 | 0.0 | 0.00 | 0.02 | 0.00 | 85 | 1012.2 |
| 20260505015426 | 49 | 24 | 0.0 | 1.0 | 0.00 | 0.02 | 0.00 | 85 | 1012.2 |
| 20260505014954 | 49 | 23 | 0.0 | 2.0 | 0.00 | 0.02 | 0.00 | 85 | 1012.2 |
| 20260505014429 | 49 | 29 | 0.0 | 2.0 | 0.00 | 0.02 | 0.00 | 84 | 1012.3 |
| 20260505013858 | 49 | 46 | 0.0 | 2.0 | 0.00 | 0.02 | 0.00 | 84 | 1012.3 |